Location: Alando
(42.3054°N, 9.2895°E)
Time: 11:28:44
(UTC+00:00)

Cosmos 1697 Rocket - Pass Details

Date: 09 April 2020
Orbit: 831 x 845 km, 71.0° (Epoch: 26 May)

Event Time Altitude Azimuth Distance (km) Brightness Sun altitude
Rises 21:08:01 0° 335° (NNW) 3,411 6.9 -30.9°
Reaches altitude 10° 21:10:28 10° 336° (NNW) 2,473 5.9 -31.2°
Enters shadow 21:14:58 58° 342° (NNW) 983 3.1 -31.7°
